Weather History for KICL - February, 2014

Change the Weather History Date:

Thursday, February 27, 2014

  Actual Average Record
Temperature  
Mean Temperature 14 °F -  
Max Temperature 24 °F 38 °F 68 °F (2006)
Min Temperature 5 °F 22 °F -5 °F (2015)
Degree Days  
Heating Degree Days 50    
Moisture  
Dew Point -2 °F    
Average Humidity 50    
Maximum Humidity 73    
Minimum Humidity 34    
Precipitation  
Precipitation 0.00 in - - ()
Sea Level Pressure  
Sea Level Pressure 30.10 in    
Wind  
Wind Speed 11 mph (NE)    
Max Wind Speed 17 mph    
Max Gust Speed 23 mph    
Visibility 10 miles    
Events      
Averages and records for this station are not official NWS values.
T = Trace of Precipitation, MM = Missing Value Source: NWS Daily Summary

Daily Weather History Graph

Daily Weather History Graph

Search for Another Location

Airport or City:

Trip Planner

Search our weather history database for the weather conditions in past years. The results will help you decide how hot, cold, wet, or windy it might be!

Date:

Astronomy

Feb. 27, 2014 Rise Set
Actual Time 6:57 AM CST 6:09 PM CST
Civil Twilight 6:29 AM CST 6:36 PM CST
Nautical Twilight 5:57 AM CST 7:08 PM CST
Astronomical Twilight 5:26 AM CST 7:40 PM CST
Moon 5:30 AM CST (2/27) 4:35 PM CST (2/27)
Length of Visible Light 12h 07m
Length of Day
11h 12m
Waning Crescent, 4% of the Moon is Illuminated
Feb 27
Waning Crescent
Mar 1
New
Mar 8
First Quarter
Mar 16
Full
Mar 23
Last Quarter

Hourly Weather History & Observations

Time (CST) Temp. Windchill Dew Point Humidity Pressure Visibility Wind Dir Wind Speed Gust Speed Precip Events Conditions
12:15 AM 24.8 °F 14.0 °F 14.0 °F 64% 29.99 in 10.0 mi NNW 11.5 mph - N/A   Clear
12:35 AM 24.8 °F 12.4 °F 12.2 °F 59% 30.00 in 10.0 mi NNW 15.0 mph 20.7 mph N/A   Clear
12:55 AM 23.0 °F 10.1 °F 10.4 °F 59% 30.01 in 10.0 mi North 15.0 mph 21.9 mph N/A   Clear
1:15 AM 21.2 °F 8.3 °F 10.4 °F 63% 30.02 in 10.0 mi NNW 13.8 mph - N/A   Clear
1:35 AM 21.2 °F 7.8 °F 8.6 °F 58% 30.03 in 10.0 mi North 15.0 mph 21.9 mph N/A   Clear
1:55 AM 19.4 °F 4.5 °F 6.8 °F 58% 30.04 in 10.0 mi North 17.3 mph - N/A   Clear
2:15 AM 17.6 °F 4.3 °F 6.8 °F 63% 30.05 in 10.0 mi North 12.7 mph 19.6 mph N/A   Clear
2:35 AM 17.6 °F 3.7 °F 6.8 °F 63% 30.05 in 10.0 mi North 13.8 mph - N/A   Clear
2:55 AM 15.8 °F 2.1 °F 6.8 °F 68% 30.07 in 10.0 mi North 12.7 mph 18.4 mph N/A   Clear
3:15 AM 15.8 °F 1.4 °F 6.8 °F 68% 30.08 in 10.0 mi North 13.8 mph - N/A   Clear
3:35 AM 14.0 °F 1.2 °F 6.8 °F 73% 30.09 in 10.0 mi NNW 10.4 mph - N/A   Clear
3:55 AM 14.0 °F -1.4 °F 5.0 °F 67% 30.10 in 10.0 mi North 15.0 mph - N/A   Clear
4:15 AM 12.2 °F -4.8 °F 3.2 °F 67% 30.11 in 10.0 mi NNE 17.3 mph 23.0 mph N/A   Clear
4:35 AM 10.4 °F -3.3 °F 3.2 °F 73% 30.12 in 10.0 mi North 10.4 mph - N/A   Clear
4:55 AM 10.4 °F -6.0 °F 3.2 °F 73% 30.13 in 10.0 mi NNE 15.0 mph - N/A   Clear
5:15 AM 8.6 °F -8.9 °F 1.4 °F 73% 30.13 in 10.0 mi North 16.1 mph 23.0 mph N/A   Clear
5:35 AM 8.6 °F -8.9 °F -0.4 °F 67% 30.15 in 10.0 mi North 16.1 mph - N/A   Clear
5:55 AM 6.8 °F -7.8 °F -4.0 °F 61% 30.15 in 10.0 mi North 10.4 mph 17.3 mph N/A   Clear
6:15 AM 6.8 °F -8.6 °F -7.6 °F 52% 30.16 in 10.0 mi North 11.5 mph 17.3 mph N/A   Clear
6:35 AM 5.0 °F -11.6 °F -5.8 °F 61% 30.18 in 10.0 mi North 12.7 mph - N/A   Clear
6:55 AM 5.0 °F -10.0 °F -9.4 °F 52% 30.19 in 10.0 mi NNE 10.4 mph - N/A   Clear
7:15 AM 5.0 °F -10.0 °F -9.4 °F 52% 30.20 in 10.0 mi North 10.4 mph 16.1 mph N/A   Clear
7:35 AM 5.0 °F -10.8 °F -7.6 °F 56% 30.19 in 10.0 mi North 11.5 mph - N/A   Clear
7:55 AM 5.0 °F -13.0 °F -9.4 °F 52% 30.19 in 10.0 mi NNE 15.0 mph - N/A   Clear
8:15 AM 6.8 °F -11.8 °F -11.2 °F 44% 30.18 in 10.0 mi NNE 17.3 mph 23.0 mph N/A   Clear
8:35 AM 6.8 °F -8.6 °F -11.2 °F 44% 30.19 in 10.0 mi NE 11.5 mph 21.9 mph N/A   Clear
8:55 AM 6.8 °F -6.9 °F -11.2 °F 44% 30.21 in 10.0 mi NNE 9.2 mph 15.0 mph N/A   Clear
9:15 AM 8.6 °F -4.7 °F -11.2 °F 40% 30.21 in 10.0 mi NE 9.2 mph - N/A   Clear
9:35 AM 8.6 °F -3.7 °F -11.2 °F 40% 30.22 in 10.0 mi NNE 8.1 mph - N/A   Clear
9:55 AM 10.4 °F 0.8 °F -11.2 °F 37% 30.23 in 10.0 mi NE 5.8 mph - N/A   Clear
10:15 AM 10.4 °F 4.0 °F -13.0 °F 34% 30.23 in 10.0 mi Variable 3.5 mph 11.5 mph N/A   Clear
10:35 AM 10.4 °F -1.5 °F -13.0 °F 34% 30.22 in 10.0 mi NE 8.1 mph - N/A   Clear
10:55 AM 12.2 °F 1.7 °F -11.2 °F 34% 30.22 in 10.0 mi NE 6.9 mph - N/A   Clear
11:15 AM 12.2 °F - -9.4 °F 38% 30.21 in 10.0 mi Calm Calm - N/A   Clear
11:35 AM 12.2 °F 0.7 °F -11.2 °F 34% 30.20 in 10.0 mi East 8.1 mph - N/A   Clear
11:55 AM 12.2 °F 1.7 °F -11.2 °F 34% 30.19 in 10.0 mi Variable 6.9 mph 13.8 mph N/A   Clear
12:15 PM 14.0 °F 3.9 °F -9.4 °F 35% 30.18 in 10.0 mi NE 6.9 mph - N/A   Clear
12:35 PM 14.0 °F 2.0 °F -7.6 °F 38% 30.17 in 10.0 mi ENE 9.2 mph - N/A   Clear
12:55 PM 15.8 °F 6.1 °F -7.6 °F 35% 30.15 in 10.0 mi Variable 6.9 mph - N/A   Clear
1:15 PM 15.8 °F 7.2 °F -5.8 °F 38% 30.13 in 10.0 mi NE 5.8 mph 12.7 mph N/A   Clear
1:35 PM 15.8 °F 5.1 °F -7.6 °F 35% 30.12 in 10.0 mi ENE 8.1 mph 13.8 mph N/A   Clear
1:55 PM 17.6 °F 5.7 °F -5.8 °F 35% 30.12 in 10.0 mi ENE 10.4 mph 16.1 mph N/A   Clear
2:15 PM 17.6 °F 10.7 °F -4.0 °F 38% 30.11 in 10.0 mi Variable 4.6 mph - N/A   Clear
2:35 PM 17.6 °F 8.2 °F -4.0 °F 38% 30.10 in 10.0 mi Variable 6.9 mph - N/A   Partly Cloudy
2:55 PM 19.4 °F 12.8 °F -4.0 °F 36% 30.10 in 10.0 mi ESE 4.6 mph 11.5 mph N/A   Mostly Cloudy
3:15 PM 17.6 °F 12.3 °F -4.0 °F 38% 30.09 in 10.0 mi Variable 3.5 mph 13.8 mph N/A   Overcast
3:35 PM 19.4 °F 9.5 °F -2.2 °F 39% 30.08 in 10.0 mi ENE 8.1 mph - N/A   Overcast
3:55 PM 19.4 °F 9.5 °F -2.2 °F 39% 30.07 in 10.0 mi NE 8.1 mph - N/A   Overcast
4:15 PM 19.4 °F 8.6 °F -2.2 °F 39% 30.06 in 10.0 mi East 9.2 mph - N/A   Overcast
4:35 PM 19.4 °F 8.6 °F -0.4 °F 42% 30.04 in 10.0 mi ENE 9.2 mph - N/A   Overcast
4:55 PM 17.6 °F 5.7 °F 1.4 °F 49% 30.04 in 10.0 mi NE 10.4 mph 16.1 mph N/A   Overcast
5:15 PM 19.4 °F 9.5 °F 1.4 °F 46% 30.04 in 10.0 mi NE 8.1 mph - N/A   Overcast
5:35 PM 19.4 °F 9.5 °F 1.4 °F 46% 30.04 in 10.0 mi NE 8.1 mph - N/A   Overcast
5:55 PM 17.6 °F 6.4 °F 3.2 °F 53% 30.04 in 10.0 mi NNE 9.2 mph - N/A   Overcast
6:15 PM 17.6 °F 8.2 °F 3.2 °F 53% 30.04 in 10.0 mi NNE 6.9 mph - N/A   Overcast
6:35 PM 17.6 °F 8.2 °F 5.0 °F 58% 30.04 in 10.0 mi North 6.9 mph - N/A   Overcast
6:55 PM 17.6 °F 9.3 °F 5.0 °F 58% 30.04 in 10.0 mi NNE 5.8 mph - N/A   Overcast
7:15 PM 19.4 °F 10.4 °F -0.4 °F 42% 30.04 in 10.0 mi ESE 6.9 mph - N/A   Overcast
7:35 PM 19.4 °F 12.8 °F 1.4 °F 46% 30.04 in 10.0 mi ESE 4.6 mph - N/A   Overcast
7:55 PM 19.4 °F 12.8 °F -0.4 °F 42% 30.04 in 10.0 mi ESE 4.6 mph - N/A   Mostly Cloudy
8:15 PM 17.6 °F 10.7 °F -0.4 °F 45% 30.04 in 10.0 mi East 4.6 mph - N/A   Partly Cloudy
8:35 PM 17.6 °F 9.3 °F 1.4 °F 49% 30.03 in 10.0 mi East 5.8 mph - N/A   Clear
8:55 PM 17.6 °F 9.3 °F -0.4 °F 45% 30.03 in 10.0 mi East 5.8 mph 11.5 mph N/A   Clear
9:15 PM 15.8 °F 6.1 °F 1.4 °F 53% 30.03 in 10.0 mi East 6.9 mph - N/A   Clear
9:35 PM 15.8 °F 5.1 °F 1.4 °F 53% 30.02 in 10.0 mi East 8.1 mph - N/A   Clear
9:55 PM 15.8 °F 2.7 °F 1.4 °F 53% 30.01 in 10.0 mi East 11.5 mph - N/A   Clear
10:15 PM 15.8 °F 4.2 °F 1.4 °F 53% 30.00 in 10.0 mi East 9.2 mph 15.0 mph N/A   Clear
10:35 PM 15.8 °F 3.4 °F 1.4 °F 53% 29.99 in 10.0 mi East 10.4 mph 17.3 mph N/A   Clear
10:55 PM 14.0 °F 2.9 °F 1.4 °F 57% 29.98 in 10.0 mi ESE 8.1 mph - N/A   Partly Cloudy
11:15 PM 15.8 °F 5.1 °F 1.4 °F 53% 29.97 in 10.0 mi ESE 8.1 mph - N/A   Clear
11:35 PM 15.8 °F 3.4 °F 1.4 °F 53% 29.96 in - ESE 10.4 mph - N/A   Clear
11:55 PM 15.8 °F 3.4 °F 1.4 °F 53% 29.95 in 10.0 mi ESE 10.4 mph 16.1 mph N/A   Scattered Clouds